Date String (YYYY-MM-DD hh:mm:ss) UTC,Instrument flags,Ambient pressure (hPa),Sample flow (lpm),Bypass flow (lpm),Sample temperature (°C),Ambient temperature (°C),ASC tube jacket temperature (°C),LED temperature (°C),Box temperature (°C),Sample RH (%),Span deviation,Mass concentration (μg/m³),Mass concentration (μg/m³),Mass concentration (μg/m³)
DateTimeUTC,F1_M11,P_M11,Q1_M11,Q2_M11,T1_M11,T2_M11,T3_M11,T4_M11,T5_M11,U1_M11,ZSPAN_M11,X0_M11,X2_M11,X1_M11
2021-12-05 01:00:00,,0822.4,5.01,0.00,29.2,28.3,00.0,38.2,30.8,08.1,0000.0,0004.77,0003.22,0002.99
2021-12-05 01:01:00,,0822.4,4.99,0.00,29.1,28.3,00.0,38.2,30.8,08.3,0000.0,0004.35,0003.11,0002.83
2021-12-05 01:02:00,,0822.4,5.00,0.00,29.1,28.3,00.0,38.2,30.8,08.3,0000.0,0004.21,0002.98,0002.68
2021-12-05 01:03:00,,0822.2,5.01,0.00,29.1,28.3,00.0,38.2,30.8,08.4,0000.0,0003.94,0002.86,0002.59
2021-12-05 01:04:00,,0822.3,5.00,0.00,29.1,28.3,00.0,38.2,30.7,08.3,0000.0,0004.94,0002.82,0002.51
2021-12-05 01:05:00,,0822.3,4.98,0.00,29.1,28.3,00.0,38.2,30.8,08.3,0000.0,0005.84,0002.84,0002.48
2021-12-05 01:06:00,,0822.3,5.01,0.00,29.1,28.3,00.0,38.2,30.7,08.3,0000.0,0005.86,0002.81,0002.43
2021-12-05 01:07:00,,0822.3,4.99,0.00,29.1,28.3,00.0,38.2,30.7,08.3,0000.0,0006.05,0002.80,0002.38
2021-12-05 01:08:00,,0822.2,5.01,0.00,29.1,28.3,00.0,38.2,30.7,08.3,0000.0,0006.25,0002.78,0002.32
2021-12-05 01:09:00,,0822.3,4.99,0.00,29.1,28.3,00.0,38.2,30.8,08.4,0000.0,0006.38,0002.76,0002.27
2021-12-05 01:10:00,,0822.4,5.00,0.00,29.1,28.2,00.0,38.2,30.7,08.4,0000.0,0006.34,0002.71,0002.21
2021-12-05 01:11:00,,0822.4,4.99,0.00,29.1,28.2,00.0,38.2,30.7,08.4,0000.0,0006.21,0002.64,0002.16
2021-12-05 01:12:00,,0822.4,4.99,0.00,29.1,28.2,00.0,38.2,30.7,08.3,0000.0,0006.24,0002.61,0002.15
2021-12-05 01:13:00,,0822.4,5.01,0.00,29.0,28.2,00.0,38.2,30.7,08.3,0000.0,0006.83,0002.66,0002.18
2021-12-05 01:14:00,,0822.4,4.99,0.00,29.0,28.2,00.0,38.2,30.7,08.2,0000.0,0007.86,0002.77,0002.22
2021-12-05 01:15:00,,0822.4,5.01,0.00,29.0,28.1,00.0,38.1,30.6,08.2,0000.0,0007.70,0002.88,0002.30
2021-12-05 01:16:00,,0822.4,5.00,0.00,29.0,28.1,00.0,38.1,30.6,08.0,0000.0,0006.54,0002.93,0002.38
2021-12-05 01:17:00,,0822.4,4.98,0.00,29.0,28.1,00.0,38.1,30.6,08.0,0000.0,0006.56,0002.98,0002.42
2021-12-05 01:18:00,,0822.3,4.99,0.00,29.0,28.1,00.0,38.1,30.6,07.6,0000.0,0007.15,0002.96,0002.44
2021-12-05 01:19:00,,0822.3,5.00,0.00,28.9,28.1,00.0,38.1,30.6,07.8,0000.0,0007.85,0002.98,0002.46
2021-12-05 01:20:00,,0822.3,4.98,0.00,28.9,28.1,00.0,38.1,30.6,07.7,0000.0,0007.77,0003.01,0002.49
2021-12-05 01:21:00,,0822.3,5.01,0.00,29.0,28.2,00.0,38.1,30.7,07.7,0000.0,0007.79,0003.06,0002.51
2021-12-05 01:22:00,,0822.3,5.00,0.00,28.9,28.1,00.0,38.1,30.7,07.6,0000.0,0007.79,0003.04,0002.48
2021-12-05 01:23:00,,0822.4,5.00,0.00,28.9,28.1,00.0,38.1,30.6,07.6,0000.0,0007.71,0002.97,0002.44
2021-12-05 01:24:00,,0822.4,5.00,0.00,28.9,28.1,00.0,38.0,30.6,07.7,0000.0,0007.42,0002.95,0002.42
2021-12-05 01:25:00,,0822.4,5.02,0.00,28.9,28.1,00.0,38.0,30.6,08.2,0000.0,0006.10,0002.94,0002.41
2021-12-05 01:26:00,,0822.5,4.99,0.00,28.9,28.1,00.0,38.0,30.6,08.6,0000.0,0006.62,0002.97,0002.36
2021-12-05 01:27:00,,0822.4,5.00,0.00,28.9,28.1,00.0,38.0,30.5,08.8,0000.0,0007.34,0003.01,0002.31
2021-12-05 01:28:00,,0822.4,5.00,0.00,28.9,28.1,00.0,38.0,30.6,08.6,0000.0,0007.78,0003.12,0002.32
2021-12-05 01:29:00,,0822.4,4.99,0.00,28.9,28.1,00.0,38.0,30.6,08.8,0000.0,0007.81,0003.18,0002.34
2021-12-05 01:30:00,,0822.4,5.00,0.00,28.9,28.1,00.0,38.0,30.6,08.9,0000.0,0007.74,0003.27,0002.37
2021-12-05 01:31:00,,0822.4,5.02,0.00,28.9,28.1,00.0,38.0,30.7,09.2,0000.0,0008.99,0003.35,0002.41
2021-12-05 01:32:00,,0822.4,4.98,0.00,28.9,28.2,00.0,38.0,30.7,09.3,0000.0,0010.34,0003.44,0002.44
2021-12-05 01:33:00,,0822.4,5.00,0.00,29.0,28.2,00.0,38.0,30.7,09.3,0000.0,0011.68,0003.59,0002.51
2021-12-05 01:34:00,,0822.4,5.01,0.00,29.0,28.2,00.0,38.0,30.7,09.3,0000.0,0012.55,0003.75,0002.58
2021-12-05 01:35:00,,0822.4,5.00,0.00,29.0,28.2,00.0,38.0,30.7,09.3,0000.0,0014.13,0003.91,0002.63
2021-12-05 01:36:00,,0822.4,4.99,0.00,29.0,28.2,00.0,38.0,30.7,09.1,0000.0,0014.96,0004.01,0002.65
2021-12-05 01:37:00,,0822.4,5.02,0.00,29.0,28.2,00.0,38.0,30.7,09.0,0000.0,0015.48,0004.05,0002.67
2021-12-05 01:38:00,,0822.4,4.99,0.00,29.0,28.3,00.0,38.0,30.7,08.9,0000.0,0015.94,0004.09,0002.70
2021-12-05 01:39:00,,0822.4,5.01,0.00,29.0,28.3,00.0,38.0,30.7,09.0,0000.0,0016.92,0004.18,0002.71
2021-12-05 01:40:00,,0822.4,4.99,0.00,29.0,28.3,00.0,38.0,30.8,08.9,0000.0,0017.13,0004.24,0002.72
2021-12-05 01:41:00,,0822.4,5.01,0.00,29.0,28.3,00.0,38.0,30.8,08.7,0000.0,0017.07,0004.30,0002.73
2021-12-05 01:42:00,,0822.4,5.00,0.00,29.0,28.3,00.0,38.0,30.8,08.5,0000.0,0016.31,0004.28,0002.71
2021-12-05 01:43:00,,0822.4,5.00,0.00,29.0,28.3,00.0,38.0,30.8,08.4,0000.0,0015.99,0004.23,0002.69
2021-12-05 01:44:00,,0822.3,5.00,0.00,29.0,28.3,00.0,38.0,30.8,08.6,0000.0,0015.17,0004.14,0002.65
2021-12-05 01:45:00,,0822.4,5.01,0.00,29.0,28.3,00.0,38.0,30.8,08.7,0000.0,0015.28,0004.09,0002.62
2021-12-05 01:46:00,,0822.4,5.00,0.00,29.0,28.2,00.0,38.0,30.7,08.7,0000.0,0014.67,0004.00,0002.59
2021-12-05 01:47:00,,0822.4,5.01,0.00,29.0,28.2,00.0,38.0,30.7,08.4,0000.0,0014.25,0003.89,0002.55
2021-12-05 01:48:00,,0822.4,5.00,0.00,29.0,28.2,00.0,38.0,30.7,08.1,0000.0,0014.30,0003.81,0002.51
2021-12-05 01:49:00,,0822.6,5.00,0.00,28.9,28.2,00.0,38.0,30.6,08.2,0000.0,0014.00,0003.69,0002.42
2021-12-05 01:50:00,,0822.6,5.01,0.00,28.9,28.2,00.0,38.0,30.6,08.3,0000.0,0014.05,0003.55,0002.38
2021-12-05 01:51:00,,0822.4,5.01,0.00,28.9,28.2,00.0,38.0,30.6,07.8,0000.0,0013.93,0003.40,0002.30
2021-12-05 01:52:00,,0822.4,5.00,0.00,28.9,28.2,00.0,38.0,30.7,07.7,0000.0,0013.47,0003.24,0002.20
2021-12-05 01:53:00,,0822.4,5.01,0.00,28.9,28.2,00.0,38.0,30.7,07.6,0000.0,0013.00,0003.11,0002.07
2021-12-05 01:54:00,,0822.4,5.00,0.00,28.9,28.2,00.0,38.0,30.7,07.7,0000.0,0012.04,0002.98,0001.97
2021-12-05 01:55:00,,0822.5,4.99,0.00,29.0,28.2,00.0,38.0,30.7,07.7,0000.0,0011.48,0002.81,0001.89
2021-12-05 01:56:00,,0822.5,5.01,0.00,29.0,28.2,00.0,38.0,30.6,07.8,0000.0,0010.76,0002.60,0001.78
2021-12-05 01:57:00,,0822.4,5.01,0.00,29.0,28.2,00.0,38.0,30.6,07.9,0000.0,0010.16,0002.35,0001.65
2021-12-05 01:58:00,,0822.4,5.00,0.00,29.0,28.2,00.0,38.0,30.7,08.1,0000.0,0009.78,0002.15,0001.53
2021-12-05 01:59:00,,0822.4,4.99,0.00,29.0,28.2,00.0,38.0,30.7,08.1,0000.0,0008.90,0001.93,0001.39
